[[{"header":{"parameterUnit":"m.s-1","parameterCategory":2,"la1":30.2991,"la2":30.254,"lo1":-89.0895,"lo2":-89.0444,"dy":0.0017,"dx":0.0017,"nx":28,"ny":28,"refTime":"2024-04-28T03:00:00:Z","depth":"0","parameterNumber":2,"parameterNumberName":"U-component_of_CURRENTS"},"data":[0,0,0,0,0,0,0,0,0,0,0,0,0,0,0,0,0,0,0,0,0,0,0,0,0,0,0,0,0,0,0,0,0,0,0,0,0,0,0,0,0,0,0,0,0,0,0,0,0,0,0,0,0,0,0,0,0,0,-0.034,-0.034,0,-0.0332,-0.0331,-0.0331,-0.0335,-0.0335,-0.0335,-0.0336,-0.0318,-0.0317,-0.0316,0,0,0,0,0,0,0,0,0,0,0,0,0,-0.0313,-0.0313,-0.034,-0.034,-0.034,-0.0332,-0.0331,-0.0331,-0.0335,-0.0335,-0.0335,-0.0336,-0.0318,-0.0317,-0.0316,0,0,0,0,0,0,0,0,0,0,0,0,0,-0.0315,-0.0313,-0.034,-0.0341,-0.0341,-0.0332,-0.0331,-0.0331,-0.0335,-0.0335,-0.0335,-0.0336,-0.0318,-0.0317,-0.0316,-0.03,0,0,-0.0312,-0.0312,0,0,0,0,0,0,0,0,-0.0315,-0.0316,-0.0341,-0.0341,-0.0341,-0.0336,-0.0315,-0.0321,-0.0334,-0.0336,-0.0336,-0.0336,-0.0323,-0.0321,-0.0318,-0.0299,-0.0299,-0.0312,-0.0312,-0.0311,-0.0311,0,0,0,0,0,0,0,-0.0315,-0.0316,-0.0335,-0.0341,-0.0341,-0.0327,-0.0328,-0.0316,-0.0326,-0.0336,-0.0336,-0.0337,-0.0323,-0.0319,-0.0317,-0.0298,-0.0312,-0.0311,-0.0311,-0.031,-0.0234,-0.0233,0,0,0,0,0,0,-0.032,-0.0317,-0.0336,-0.0335,-0.033,-0.0327,-0.0328,-0.0336,-0.0326,-0.0326,-0.0337,-0.0337,-0.032,-0.0319,-0.0317,-0.0284,-0.0311,-0.031,-0.0309,-0.0235,-0.0234,-0.0232,0,0,0,0,0,0,-0.032,-0.0322,-0.0336,-0.0326,-0.0327,-0.0328,-0.0336,-0.0336,-0.0335,-0.0327,-0.0326,-0.0337,-0.0321,-0.0318,-0.0295,-0.0284,-0.031,-0.0309,-0.0237,-0.0235,-0.0233,-0.0226,0,0,0,0,0,0,-0.0319,-0.0322,-0.0329,-0.0327,-0.0328,-0.0331,-0.0335,-0.0335,-0.0335,-0.0336,-0.0327,-0.0326,-0.0321,-0.0297,-0.0294,-0.0282,-0.0308,-0.0238,-0.0236,-0.0233,-0.0228,-0.0224,-0.0221,0,0,0,0,0,-0.0318,-0.0327,-0.0329,-0.0332,-0.0337,-0.0331,-0.033,-0.0331,-0.0335,-0.0332,-0.0318,-0.0326,-0.0279,-0.0295,-0.0292,-0.028,-0.024,-0.0237,-0.0234,-0.023,-0.0225,-0.0221,0,0,0,0,0,0,-0.0321,-0.0328,-0.0331,-0.0342,-0.0337,-0.0332,-0.0334,-0.0331,-0.0319,-0.0321,-0.0312,-0.0308,-0.0282,-0.0277,-0.0295,-0.0247,-0.0259,-0.0256,-0.0257,-0.0253,-0.0249,-0.0267,-0.0307,0,0,0,0,0,-0.0324,-0.0331,-0.0331,-0.0339,-0.0341,-0.0337,-0.0335,-0.0334,-0.0324,-0.032,-0.0308,-0.029,-0.0266,-0.0258,-0.0238,-0.0216,-0.0252,-0.0203,-0.02,-0.0197,-0.0207,-0.0201,-0.0199,-0.0222,-0.0222,-0.0222,0,0,-0.0326,-0.0332,-0.0335,-0.034,-0.034,-0.0335,-0.0337,-0.0337,-0.0325,-0.0319,-0.0298,-0.0279,-0.0256,-0.0227,-0.0215,-0.0223,-0.0223,-0.0193,-0.0191,-0.0203,-0.0198,-0.0196,-0.0194,-0.022,-0.022,-0.0221,0,0,-0.0328,-0.0341,-0.0345,-0.0343,-0.0344,-0.0338,-0.0338,-0.033,-0.0321,-0.0297,-0.0283,-0.0257,-0.0226,-0.0205,-0.019,-0.0154,-0.0201,-0.0144,-0.0145,-0.0138,-0.0137,-0.0137,-0.0251,-0.026,-0.0144,-0.0144,-0.0144,0,-0.0328,-0.034,-0.0342,-0.0344,-0.0347,-0.0339,-0.0339,-0.0322,-0.0303,-0.0295,-0.029,-0.0235,-0.0216,-0.0179,-0.0162,-0.0149,-0.0192,-0.0167,-0.0137,-0.0136,-0.0135,-0.0252,-0.0262,-0.0144,-0.0144,-0.0144,-0.0144,0,-0.0328,-0.034,-0.0344,-0.0344,-0.0341,-0.0343,-0.0326,-0.0314,-0.0303,-0.0286,-0.025,-0.0216,-0.0192,-0.0168,-0.0155,-0.0131,-0.0185,-0.0134,-0.0156,-0.0133,-0.0258,-0.0269,-0.0143,-0.0143,-0.0143,-0.0143,0,0,-0.0317,-0.034,-0.0341,-0.0359,-0.0347,-0.0353,-0.0327,-0.0311,-0.0317,-0.0267,-0.0267,-0.0196,-0.0189,-0.0171,-0.0146,-0.0131,-0.0181,-0.0133,-0.0133,-0.0266,-0.0262,-0.0533,-0.0572,-0.0117,-0.0117,-0.0117,-0.038,0,-0.0316,-0.0338,-0.0338,-0.0354,-0.0369,-0.0358,-0.0348,-0.0329,-0.0313,-0.0308,-0.0253,-0.0253,-0.0185,-0.0201,-0.0155,-0.0175,-0.0197,-0.0121,-0.0249,-0.0256,-0.0511,-0.0587,-0.0741,-0.1006,-0.0391,-0.0393,-0.0394,0,-0.0309,-0.0334,-0.0356,-0.0394,-0.04,-0.0403,-0.0414,-0.0405,-0.0379,-0.0377,-0.0338,-0.0316,-0.0297,-0.0241,-0.0257,-0.0214,-0.0242,-0.0253,-0.0261,-0.0521,-0.0545,-0.0912,-0.105,-0.1075,-0.0411,-0.041,-0.0409,0,-0.0316,-0.0346,-0.0375,-0.0383,-0.0412,-0.0426,-0.0439,-0.0428,-0.0463,-0.0446,-0.051,-0.0417,-0.0479,-0.0406,-0.0451,-0.035,-0.052,-0.0382,-0.0663,-0.0687,-0.0852,-0.0891,-0.1042,-0.0402,-0.0401,-0.04,-0.04,0,-0.0317,-0.0343,-0.0393,-0.0413,-0.0465,-0.0471,-0.0521,-0.0523,-0.0566,-0.0664,-0.0571,-0.0681,-0.0522,-0.0598,-0.0529,-0.0716,-0.0597,-0.0724,-0.0771,-0.0866,-0.0901,-0.0956,-0.0916,-0.041,-0.0408,-0.0406,-0.0404,0,-0.0319,-0.0343,-0.0395,-0.045,-0.0473,-0.0517,-0.0612,-0.0665,-0.0717,-0.0856,-0.0886,-0.0933,-0.1068,-0.0991,-0.0984,-0.0953,-0.1093,-0.1097,-0.1303,-0.1369,-0.1615,-0.157,-0.1787,-0.1792,-0.1425,-0.1434,-0.1441,0,-0.0322,-0.0347,-0.0432,-0.0485,-0.0519,-0.0592,-0.0657,-0.072,-0.0816,-0.1057,-0.116,-0.1347,-0.1526,-0.1681,-0.1638,-0.1674,-0.1511,-0.1836,-0.1638,-0.1732,-0.1709,-0.1594,-0.1566,-0.1875,-0.1884,-0.1893,-0.1899,0,-0.034,-0.0371,-0.0424,-0.0536,-0.0621,-0.0731,-0.0851,-0.0966,-0.1112,-0.1306,-0.1644,-0.1832,-0.206,-0.2235,-0.2308,-0.2254,-0.191,-0.2013,-0.1994,-0.2028,-0.202,-0.2015,-0.1666,-0.1972,-0.1964,-0.1959,-0.1955,-0.1952,-0.0363,-0.0412,-0.0496,-0.0601,-0.0705,-0.0895,-0.0994,-0.1194,-0.1446,-0.177,-0.1978,-0.2324,-0.2588,-0.2739,-0.2733,-0.2778,-0.2526,-0.2668,-0.2605,-0.2478,-0.2489,-0.2405,-0.2818,-0.2816,-0.2814,-0.2812,-0.2811,0,-0.042,-0.0477,-0.0565,-0.0709,-0.0839,-0.0896,-0.1131,-0.1248,-0.1572,-0.1944,-0.2274,-0.2819,-0.3123,-0.3215,-0.3367,-0.3337,-0.3112,-0.3238,-0.3012,-0.294,-0.28,-0.2825,-0.3398,-0.3398,-0.3398,-0.3398,-0.3398,-0.3398,-0.0458,-0.0558,-0.0604,-0.0808,-0.0906,-0.1092,-0.1233,-0.1431,-0.1667,-0.2162,-0.2553,-0.2833,-0.3051,-0.3657,-0.3754,-0.3641,-0.3428,-0.348,-0.3309,-0.3128,-0.3063,-0.3,-0.3012,-0.3615,-0.3615,-0.3419,-0.3418,-0.3417]},{"header":{"parameterUnit":"m.s-1","parameterCategory":2,"la1":30.2991,"la2":30.254,"lo1":-89.0895,"lo2":-89.0444,"dy":0.0017,"dx":0.0017,"nx":28,"ny":28,"refTime":"2024-04-28T03:00:00:Z","depth":"0","parameterNumber":3,"parameterNumberName":"V-component_of_CURRENTS"},"data":[0,0,0,0,0,0,0,0,0,0,0,0,0,0,0,0,0,0,0,0,0,0,0,0,0,0,0,0,0,0,0,0,0,0,0,0,0,0,0,0,0,0,0,0,0,0,0,0,0,0,0,0,0,0,0,0,0,0,0.0173,0.0173,0,0.0203,0.0203,0.0203,0.0215,0.0215,0.0215,0.0214,0.0233,0.0233,0.0234,0,0,0,0,0,0,0,0,0,0,0,0,0,0.0154,0.0154,0.0173,0.0173,0.0173,0.0202,0.0203,0.0203,0.0215,0.0215,0.0214,0.0214,0.0233,0.0233,0.0234,0,0,0,0,0,0,0,0,0,0,0,0,0,0.0171,0.0154,0.0173,0.0183,0.0184,0.0202,0.0203,0.0203,0.0215,0.0215,0.0214,0.0214,0.0233,0.0233,0.0234,0.024,0,0,0.0237,0.0237,0,0,0,0,0,0,0,0,0.017,0.0171,0.0181,0.0182,0.0184,0.0205,0.0203,0.0215,0.0215,0.0203,0.0214,0.0214,0.0223,0.0225,0.023,0.0241,0.0242,0.0237,0.0237,0.0237,0.0238,0,0,0,0,0,0,0,0.0168,0.017,0.0184,0.0181,0.0183,0.0196,0.0198,0.0206,0.0212,0.0204,0.0205,0.0209,0.0224,0.0229,0.023,0.0242,0.0237,0.0237,0.0238,0.0238,0.0264,0.0264,0,0,0,0,0,0,0.0164,0.0169,0.0183,0.0185,0.0177,0.0196,0.0199,0.0198,0.0212,0.0215,0.0209,0.0209,0.0228,0.0229,0.0231,0.0244,0.0237,0.0238,0.0239,0.0263,0.0264,0.0264,0,0,0,0,0,0,0.0164,0.0165,0.0182,0.0178,0.0181,0.0197,0.0196,0.0199,0.0205,0.0217,0.0219,0.0213,0.0228,0.023,0.0241,0.0244,0.0239,0.0239,0.0263,0.0263,0.0264,0.0266,0,0,0,0,0,0,0.0163,0.0164,0.0162,0.0178,0.0181,0.0193,0.0196,0.0199,0.0208,0.0209,0.0221,0.0222,0.0228,0.024,0.0242,0.0245,0.024,0.0263,0.0263,0.0264,0.0266,0.0267,0.0267,0,0,0,0,0,0.0162,0.0156,0.0161,0.0163,0.0177,0.0193,0.0196,0.0207,0.0208,0.0212,0.0221,0.0222,0.0244,0.0241,0.0243,0.0247,0.0263,0.0263,0.0264,0.0266,0.0267,0.0267,0,0,0,0,0,0,0.014,0.0157,0.0163,0.0161,0.0177,0.0195,0.0199,0.0207,0.0217,0.0218,0.0227,0.0229,0.024,0.0243,0.024,0.0255,0.0252,0.0253,0.0253,0.0254,0.0255,0.0275,0.0241,0,0,0,0,0,0.0136,0.0141,0.0158,0.0158,0.0166,0.0183,0.019,0.0199,0.0212,0.0217,0.0226,0.0235,0.0244,0.0249,0.0257,0.0266,0.0283,0.0269,0.027,0.027,0.0288,0.0297,0.03,0.0265,0.0265,0.0265,0,0,0.0127,0.0138,0.014,0.0155,0.0168,0.0183,0.0187,0.02,0.0214,0.0217,0.0235,0.0238,0.0247,0.0258,0.0263,0.0261,0.0292,0.0271,0.0271,0.0289,0.0298,0.0302,0.0305,0.0266,0.0266,0.0265,0,0,0.0119,0.0123,0.0129,0.0143,0.0164,0.018,0.0184,0.0204,0.0215,0.0233,0.0237,0.0248,0.0259,0.027,0.0276,0.0286,0.0295,0.028,0.03,0.0307,0.0311,0.0314,0.0352,0.0358,0.0279,0.0279,0.0279,0,0.0108,0.0116,0.0132,0.0144,0.0159,0.0179,0.0193,0.0208,0.023,0.0248,0.0239,0.0271,0.027,0.0295,0.0295,0.0289,0.0302,0.0294,0.0309,0.0312,0.0315,0.0353,0.036,0.0279,0.0279,0.0279,0.0279,0,0.0112,0.0116,0.0121,0.0147,0.0166,0.0179,0.0208,0.0229,0.0244,0.0263,0.0291,0.0293,0.0319,0.0308,0.0304,0.0325,0.0332,0.0308,0.0307,0.0319,0.0358,0.0365,0.0279,0.0279,0.0279,0.0279,0,0,0.0099,0.0119,0.0122,0.0132,0.0169,0.0185,0.0221,0.0261,0.0296,0.0306,0.035,0.0349,0.0359,0.0366,0.0359,0.0358,0.0385,0.0341,0.0341,0.0381,0.0425,0.0532,0.055,0.0355,0.0356,0.0357,0.0449,0,0.01,0.0105,0.0131,0.0152,0.0159,0.0202,0.024,0.0281,0.0318,0.0366,0.0376,0.0409,0.0378,0.0393,0.0389,0.0394,0.0402,0.0364,0.0407,0.041,0.0504,0.0561,0.0684,0.0786,0.0456,0.0457,0.0458,0,0.0105,0.0106,0.0113,0.0154,0.0168,0.019,0.0266,0.0301,0.0375,0.041,0.0449,0.0471,0.0501,0.0457,0.0484,0.046,0.0449,0.044,0.0442,0.0551,0.0531,0.0719,0.0811,0.1045,0.0469,0.0469,0.0468,0,0.008,0.0103,0.0105,0.0115,0.0163,0.019,0.0226,0.0305,0.0342,0.0438,0.0484,0.0531,0.0558,0.0553,0.0562,0.052,0.0591,0.0531,0.062,0.0627,0.075,0.0768,0.1081,0.0541,0.0541,0.0541,0.054,0,0.0067,0.0074,0.0087,0.0085,0.0106,0.0162,0.021,0.0268,0.0353,0.0397,0.0493,0.0546,0.0576,0.0627,0.0607,0.0676,0.0635,0.066,0.0668,0.0757,0.0774,0.0995,0.1062,0.0544,0.0543,0.0543,0.0542,0,0.0033,0.0043,0.0041,0.0075,0.0084,0.0095,0.0161,0.0194,0.0307,0.0372,0.0405,0.0557,0.0657,0.071,0.0736,0.0756,0.0925,0.0809,0.094,0.0963,0.1269,0.1329,0.1581,0.1616,0.0942,0.0946,0.0948,0,0.0009,-0.0,0.0004,-0.0015,-0.0009,0.0016,0.0029,0.0138,0.0171,0.0364,0.038,0.0556,0.0667,0.0837,0.0946,0.1031,0.1071,0.1166,0.1106,0.136,0.1429,0.1429,0.1435,0.1268,0.1273,0.1277,0.1281,0,-0.0043,-0.0042,-0.0055,-0.0104,-0.0112,-0.011,-0.0083,-0.0063,0.0074,0.0161,0.0304,0.0438,0.075,0.102,0.1225,0.1223,0.1376,0.1256,0.148,0.171,0.1768,0.178,0.1147,0.1319,0.1315,0.1312,0.131,0.1309,-0.0092,-0.0126,-0.0161,-0.0202,-0.023,-0.0267,-0.0299,-0.0245,-0.0198,-0.0063,0.0175,0.0423,0.1057,0.141,0.1482,0.1842,0.1654,0.1898,0.1948,0.1922,0.1989,0.1471,0.1669,0.1667,0.1666,0.1664,0.1663,0,-0.017,-0.0211,-0.0262,-0.0337,-0.042,-0.0389,-0.0406,-0.0438,-0.0445,-0.0179,0.0002,0.0761,0.1344,0.1832,0.2451,0.2584,0.2474,0.2615,0.2665,0.2621,0.2168,0.2221,0.2597,0.2597,0.2597,0.2597,0.2596,0.2596,-0.0221,-0.0301,-0.033,-0.0504,-0.0572,-0.0697,-0.0736,-0.0748,-0.0614,-0.026,0.018,0.0577,0.1549,0.2834,0.3393,0.3312,0.3356,0.3333,0.3297,0.3061,0.2997,0.2937,0.301,0.3545,0.3546,0.3728,0.3731,0.3734]}],[{"header":{"parameterUnit":"m.s-1","parameterCategory":2,"la1":30.2991,"la2":30.254,"lo1":-89.0895,"lo2":-89.0444,"dy":0.0017,"dx":0.0017,"nx":28,"ny":28,"refTime":"2024-04-28T03:00:00:Z","depth":"2","parameterNumber":2,"parameterNumberName":"U-component_of_CURRENTS"},"data":[0,0,0,0,0,0,0,0,0,0,0,0,0,0,0,0,0,0,0,0,0,0,0,0,0,0,0,0,0,0,0,0,0,0,0,0,0,0,0,0,0,0,0,0,0,0,0,0,0,0,0,0,0,0,0,0,0,0,-0.0303,-0.0303,0,-0.0295,-0.0295,-0.0295,-0.0299,-0.0299,-0.0299,-0.0299,-0.0281,-0.0281,-0.028,0,0,0,0,0,0,0,0,0,0,0,0,0,-0.0277,-0.0278,-0.0303,-0.0303,-0.0303,-0.0295,-0.0295,-0.0295,-0.0298,-0.0299,-0.0299,-0.03,-0.0282,-0.0281,-0.028,0,0,0,0,0,0,0,0,0,0,0,0,0,-0.028,-0.0278,-0.0303,-0.0305,-0.0305,-0.0295,-0.0295,-0.0295,-0.0298,-0.0299,-0.0299,-0.03,-0.0282,-0.0281,-0.028,-0.0263,0,0,-0.0276,-0.0276,0,0,0,0,0,0,0,0,-0.028,-0.028,-0.0305,-0.0305,-0.0305,-0.0299,-0.0279,-0.0284,-0.0298,-0.03,-0.0299,-0.03,-0.0287,-0.0285,-0.0281,-0.0262,-0.0262,-0.0276,-0.0275,-0.0275,-0.0274,0,0,0,0,0,0,0,-0.0279,-0.0281,-0.0299,-0.0305,-0.0305,-0.0291,-0.0292,-0.028,-0.029,-0.03,-0.03,-0.0301,-0.0287,-0.0282,-0.0281,-0.0261,-0.0276,-0.0275,-0.0274,-0.0274,-0.0196,-0.0195,0,0,0,0,0,0,-0.0285,-0.0281,-0.0299,-0.0299,-0.0294,-0.0291,-0.0292,-0.03,-0.029,-0.029,-0.0301,-0.0301,-0.0284,-0.0282,-0.028,-0.0247,-0.0275,-0.0274,-0.0273,-0.0198,-0.0196,-0.0195,0,0,0,0,0,0,-0.0284,-0.0287,-0.03,-0.029,-0.0291,-0.0292,-0.03,-0.0299,-0.0299,-0.0291,-0.029,-0.0301,-0.0284,-0.0282,-0.0259,-0.0247,-0.0273,-0.0272,-0.0199,-0.0197,-0.0195,-0.0189,0,0,0,0,0,0,-0.0284,-0.0287,-0.0293,-0.0291,-0.0292,-0.0295,-0.0299,-0.0299,-0.0299,-0.03,-0.0291,-0.029,-0.0285,-0.0261,-0.0258,-0.0246,-0.0271,-0.0201,-0.0198,-0.0196,-0.0191,-0.0187,-0.0184,0,0,0,0,0,-0.0283,-0.0291,-0.0294,-0.0296,-0.0301,-0.0295,-0.0293,-0.0294,-0.0299,-0.0296,-0.0282,-0.029,-0.0242,-0.0259,-0.0256,-0.0243,-0.0202,-0.0199,-0.0196,-0.0193,-0.0188,-0.0184,0,0,0,0,0,0,-0.0286,-0.0292,-0.0295,-0.0306,-0.0301,-0.0296,-0.0298,-0.0295,-0.0282,-0.0285,-0.0276,-0.0272,-0.0246,-0.0241,-0.0259,-0.021,-0.0222,-0.0219,-0.0221,-0.0216,-0.0213,-0.0231,-0.027,0,0,0,0,0,-0.0289,-0.0296,-0.0296,-0.0304,-0.0305,-0.0301,-0.0299,-0.0298,-0.0288,-0.0284,-0.0272,-0.0254,-0.0229,-0.0221,-0.0202,-0.0179,-0.0215,-0.0166,-0.0163,-0.016,-0.017,-0.0164,-0.0161,-0.0185,-0.0185,-0.0185,0,0,-0.029,-0.0297,-0.03,-0.0304,-0.0304,-0.0299,-0.0301,-0.0301,-0.0289,-0.0283,-0.0262,-0.0243,-0.0219,-0.019,-0.0178,-0.0186,-0.0186,-0.0156,-0.0154,-0.0166,-0.016,-0.0158,-0.0157,-0.0183,-0.0183,-0.0183,0,0,-0.0293,-0.0306,-0.031,-0.0308,-0.0309,-0.0302,-0.0303,-0.0294,-0.0286,-0.0261,-0.0247,-0.0221,-0.019,-0.0168,-0.0153,-0.0117,-0.0164,-0.0107,-0.0108,-0.0101,-0.01,-0.0099,-0.0213,-0.0222,-0.0107,-0.0107,-0.0107,0,-0.0293,-0.0305,-0.0307,-0.0309,-0.0311,-0.0304,-0.0304,-0.0287,-0.0267,-0.0259,-0.0254,-0.0199,-0.0179,-0.0142,-0.0126,-0.0112,-0.0155,-0.0131,-0.01,-0.0099,-0.0098,-0.0214,-0.0224,-0.0107,-0.0107,-0.0107,-0.0107,0,-0.0293,-0.0306,-0.0309,-0.0309,-0.0306,-0.0308,-0.0291,-0.0279,-0.0267,-0.025,-0.0215,-0.018,-0.0156,-0.0131,-0.0118,-0.0094,-0.0148,-0.0097,-0.0119,-0.0096,-0.022,-0.0231,-0.0106,-0.0106,-0.0106,-0.0106,0,0,-0.0283,-0.0306,-0.0306,-0.0324,-0.0312,-0.0318,-0.0291,-0.0275,-0.0281,-0.0232,-0.0231,-0.016,-0.0153,-0.0135,-0.011,-0.0094,-0.0144,-0.0096,-0.0096,-0.0228,-0.0224,-0.0491,-0.053,-0.008,-0.008,-0.008,-0.0341,0,-0.0283,-0.0304,-0.0303,-0.0319,-0.0334,-0.0323,-0.0312,-0.0294,-0.0277,-0.0272,-0.0216,-0.0216,-0.0149,-0.0165,-0.0119,-0.0138,-0.016,-0.0084,-0.0211,-0.0218,-0.0469,-0.0545,-0.0371,-0.0607,-0.0352,-0.0354,-0.0355,0,-0.0276,-0.03,-0.0322,-0.0359,-0.0365,-0.0368,-0.0378,-0.0369,-0.0343,-0.0341,-0.0301,-0.0279,-0.026,-0.0205,-0.0219,-0.0177,-0.0205,-0.0215,-0.0224,-0.0479,-0.0503,-0.0571,-0.0636,-0.0374,-0.0372,-0.0371,-0.037,0,-0.0283,-0.0312,-0.0341,-0.0349,-0.0377,-0.0391,-0.0404,-0.0392,-0.0427,-0.0409,-0.0473,-0.038,-0.0442,-0.0368,-0.0412,-0.0312,-0.048,-0.0343,-0.0621,-0.0644,-0.0529,-0.0544,-0.0363,-0.0362,-0.0362,-0.0361,-0.036,0,-0.0285,-0.031,-0.036,-0.0379,-0.0431,-0.0436,-0.0486,-0.0487,-0.053,-0.0627,-0.0534,-0.0643,-0.0484,-0.0559,-0.049,-0.0674,-0.0557,-0.0681,-0.0727,-0.0537,-0.0548,-0.0337,-0.0331,-0.0371,-0.0369,-0.0367,-0.0365,0,-0.0287,-0.031,-0.0362,-0.0416,-0.0439,-0.0483,-0.0577,-0.063,-0.0681,-0.0818,-0.0848,-0.0893,-0.1026,-0.0949,-0.0941,-0.0909,-0.0961,-0.105,-0.0929,-0.0958,-0.1101,-0.1091,-0.1353,-0.1364,-0.1374,-0.1382,-0.1389,0,-0.029,-0.0315,-0.0399,-0.0452,-0.0486,-0.0558,-0.0622,-0.0685,-0.078,-0.1018,-0.1119,-0.1305,-0.1461,-0.1612,-0.1482,-0.149,-0.1369,-0.1442,-0.12,-0.1185,-0.1201,-0.1175,-0.1152,-0.1051,-0.1055,-0.1057,-0.106,0,-0.0308,-0.0339,-0.0392,-0.0503,-0.0587,-0.0695,-0.0814,-0.0929,-0.1073,-0.1236,-0.1571,-0.1737,-0.189,-0.1846,-0.1879,-0.1803,-0.14,-0.1521,-0.1489,-0.0878,-0.0935,-0.094,-0.0919,-0.1085,-0.1083,-0.1081,-0.108,-0.1079,-0.033,-0.0379,-0.0463,-0.0567,-0.0671,-0.0858,-0.0957,-0.1029,-0.1235,-0.1379,-0.1741,-0.1858,-0.1924,-0.1849,-0.1854,-0.1747,-0.1785,-0.1619,-0.1592,-0.1566,-0.1535,-0.1611,-0.1888,-0.189,-0.1892,-0.1894,-0.1895,0,-0.0364,-0.0444,-0.0532,-0.0674,-0.0759,-0.0861,-0.1093,-0.1049,-0.1172,-0.1307,-0.1497,-0.156,-0.1684,-0.1705,-0.1597,-0.1692,-0.1425,-0.164,-0.1228,-0.1211,-0.1193,-0.1122,-0.1376,-0.1375,-0.1373,-0.1372,0,0,-0.0395,-0.048,-0.0525,-0.0694,-0.0816,-0.0886,-0.1023,-0.0923,-0.0906,-0.0885,-0.0955,-0.1226,-0.1547,-0.1343,-0.1423,-0.1373,-0.1201,-0.1297,-0.1709,-0.119,-0.1167,-0.1207,-0.109,0,0,0,0,0]},{"header":{"parameterUnit":"m.s-1","parameterCategory":2,"la1":30.2991,"la2":30.254,"lo1":-89.0895,"lo2":-89.0444,"dy":0.0017,"dx":0.0017,"nx":28,"ny":28,"refTime":"2024-04-28T03:00:00:Z","depth":"2","parameterNumber":3,"parameterNumberName":"V-component_of_CURRENTS"},"data":[0,0,0,0,0,0,0,0,0,0,0,0,0,0,0,0,0,0,0,0,0,0,0,0,0,0,0,0,0,0,0,0,0,0,0,0,0,0,0,0,0,0,0,0,0,0,0,0,0,0,0,0,0,0,0,0,0,0,0.0151,0.0151,0,0.0181,0.0181,0.0181,0.0193,0.0193,0.0193,0.0193,0.0212,0.0212,0.0213,0,0,0,0,0,0,0,0,0,0,0,0,0,0.0131,0.0131,0.0151,0.0151,0.0151,0.0181,0.0181,0.0181,0.0193,0.0193,0.0193,0.0193,0.0211,0.0212,0.0213,0,0,0,0,0,0,0,0,0,0,0,0,0,0.0148,0.0131,0.0151,0.0161,0.0162,0.0181,0.0181,0.0182,0.0193,0.0193,0.0193,0.0193,0.0211,0.0212,0.0213,0.0219,0,0,0.0215,0.0216,0,0,0,0,0,0,0,0,0.0147,0.0148,0.0159,0.016,0.0162,0.0183,0.0181,0.0194,0.0193,0.0181,0.0193,0.0193,0.0201,0.0203,0.0208,0.022,0.0221,0.0215,0.0216,0.0216,0.0216,0,0,0,0,0,0,0,0.0146,0.0147,0.0162,0.016,0.0161,0.0174,0.0176,0.0184,0.0191,0.0182,0.0183,0.0187,0.0202,0.0208,0.0209,0.0221,0.0215,0.0216,0.0217,0.0217,0.0243,0.0243,0,0,0,0,0,0,0.0141,0.0146,0.0161,0.0163,0.0155,0.0174,0.0177,0.0176,0.0191,0.0193,0.0187,0.0187,0.0206,0.0208,0.021,0.0223,0.0216,0.0217,0.0217,0.0243,0.0243,0.0243,0,0,0,0,0,0,0.0141,0.0142,0.016,0.0156,0.0159,0.0175,0.0174,0.0177,0.0184,0.0195,0.0197,0.0191,0.0206,0.0208,0.022,0.0224,0.0217,0.0218,0.0243,0.0243,0.0243,0.0247,0,0,0,0,0,0,0.014,0.0142,0.0139,0.0155,0.0159,0.0171,0.0174,0.0177,0.0186,0.0187,0.0199,0.0201,0.0206,0.0219,0.0221,0.0225,0.0219,0.0243,0.0243,0.0243,0.0247,0.0247,0.0248,0,0,0,0,0,0.0139,0.0134,0.0139,0.0141,0.0155,0.0171,0.0174,0.0185,0.0187,0.019,0.02,0.0201,0.0223,0.022,0.0222,0.0226,0.0242,0.0243,0.0243,0.0246,0.0247,0.0248,0,0,0,0,0,0,0.0117,0.0135,0.0141,0.0139,0.0155,0.0173,0.0178,0.0185,0.0196,0.0197,0.0205,0.0208,0.022,0.0222,0.0219,0.0235,0.0232,0.0233,0.0233,0.0234,0.0235,0.0255,0.0219,0,0,0,0,0,0.0113,0.0119,0.0136,0.0136,0.0144,0.0162,0.0169,0.0178,0.0191,0.0195,0.0205,0.0214,0.0223,0.0228,0.0237,0.0246,0.0262,0.0249,0.025,0.0251,0.0268,0.0277,0.028,0.0245,0.0245,0.0245,0,0,0.0105,0.0116,0.0118,0.0133,0.0147,0.0162,0.0166,0.0179,0.0194,0.0196,0.0215,0.0218,0.0227,0.0238,0.0243,0.0241,0.0272,0.0251,0.0252,0.027,0.0278,0.0281,0.0285,0.0245,0.0245,0.0245,0,0,0.0097,0.0102,0.0108,0.0122,0.0144,0.0159,0.0163,0.0184,0.0195,0.0213,0.0217,0.0228,0.024,0.0251,0.0256,0.0267,0.0275,0.0261,0.0281,0.0289,0.0292,0.0295,0.0332,0.0338,0.0261,0.0261,0.0261,0,0.0086,0.0095,0.0111,0.0123,0.0139,0.0159,0.0173,0.0188,0.021,0.0229,0.022,0.0252,0.0251,0.0276,0.0276,0.027,0.0283,0.0276,0.029,0.0293,0.0296,0.0334,0.034,0.0261,0.0261,0.0261,0.0261,0,0.0091,0.0095,0.0101,0.0127,0.0146,0.0159,0.0189,0.021,0.0225,0.0244,0.0273,0.0275,0.03,0.0289,0.0286,0.0307,0.0313,0.0289,0.0288,0.03,0.0339,0.0346,0.0261,0.0261,0.0261,0.0261,0,0,0.0079,0.0099,0.0102,0.0112,0.015,0.0165,0.0202,0.0242,0.0277,0.0287,0.0331,0.0331,0.034,0.0348,0.0341,0.034,0.0366,0.0323,0.0323,0.0362,0.0406,0.0509,0.0527,0.0337,0.0337,0.0338,0.0429,0,0.008,0.0085,0.0111,0.0133,0.014,0.0183,0.0221,0.0262,0.0299,0.0347,0.0357,0.039,0.036,0.0374,0.037,0.0375,0.0383,0.0346,0.0387,0.039,0.0481,0.0538,0.0383,0.046,0.0436,0.0437,0.0438,0,0.0084,0.0086,0.0093,0.0135,0.0148,0.0171,0.0247,0.0282,0.0356,0.0391,0.0429,0.0452,0.0481,0.0438,0.0464,0.0441,0.0429,0.042,0.0423,0.0527,0.0507,0.0441,0.0473,0.045,0.0449,0.0448,0.0447,0,0.0059,0.0083,0.0085,0.0095,0.0144,0.0171,0.0207,0.0286,0.0322,0.0418,0.0464,0.0511,0.0538,0.0532,0.0541,0.0499,0.0569,0.0509,0.0595,0.0602,0.0489,0.0487,0.0519,0.0519,0.0519,0.0519,0.0519,0,0.0047,0.0054,0.0067,0.0066,0.0086,0.0143,0.019,0.0248,0.0333,0.0376,0.0472,0.0524,0.0555,0.0604,0.0585,0.0652,0.0612,0.0635,0.0642,0.049,0.0487,0.0482,0.0477,0.0522,0.0521,0.0521,0.052,0,0.0012,0.0023,0.0022,0.0055,0.0064,0.0076,0.0141,0.0174,0.0287,0.035,0.0384,0.0534,0.0633,0.0685,0.0711,0.073,0.0763,0.078,0.0635,0.0626,0.0777,0.077,0.09,0.0905,0.0909,0.0912,0.0915,0,-0.0011,-0.002,-0.0016,-0.0034,-0.0028,-0.0003,0.0009,0.0118,0.015,0.0342,0.0357,0.0531,0.0626,0.0793,0.082,0.0881,0.0871,0.0842,0.0746,0.0828,0.082,0.0807,0.0796,0.0581,0.0581,0.0581,0.0581,0,-0.0063,-0.0061,-0.0074,-0.0123,-0.0131,-0.013,-0.0103,-0.0084,0.0052,0.0124,0.0264,0.0383,0.0617,0.0695,0.0865,0.0849,0.0835,0.0849,0.0947,0.0542,0.0543,0.0531,0.0526,0.0579,0.0579,0.058,0.058,0.058,-0.0111,-0.0145,-0.018,-0.0221,-0.0249,-0.0286,-0.0319,-0.0312,-0.0286,-0.0263,0.0019,0.0116,0.0444,0.0554,0.0743,0.0862,0.0853,0.0831,0.0823,0.0817,0.0798,0.0809,0.0892,0.0894,0.0895,0.0897,0.0898,0,-0.0199,-0.023,-0.0281,-0.0356,-0.0451,-0.0408,-0.0426,-0.0505,-0.0589,-0.0556,-0.0484,-0.0199,0.0039,0.0374,0.0552,0.0777,0.0663,0.0818,0.0622,0.0621,0.0621,0.0585,0.0627,0.0628,0.0628,0.0629,0,0,-0.0252,-0.0337,-0.0367,-0.0547,-0.0605,-0.0748,-0.0789,-0.0902,-0.0944,-0.1009,-0.0959,-0.0743,-0.0134,-0.0026,0.0296,0.0444,0.0426,0.0412,0.0581,0.0298,0.0295,0.0572,0.0512,0,0,0,0,0]}],[{"header":{"parameterUnit":"m.s-1","parameterCategory":2,"la1":30.2991,"la2":30.254,"lo1":-89.0895,"lo2":-89.0444,"dy":0.0017,"dx":0.0017,"nx":28,"ny":28,"refTime":"2024-04-28T03:00:00:Z","depth":"4","parameterNumber":2,"parameterNumberName":"U-component_of_CURRENTS"},"data":[0,0,0,0,0,0,0,0,0,0,0,0,0,0,0,0,0,0,0,0,0,0,0,0,0,0,0,0,0,0,0,0,0,0,0,0,0,0,0,0,0,0,0,0,0,0,0,0,0,0,0,0,0,0,0,0,0,0,0.0251,0.0251,0,0.0265,0.0265,0.0266,0.0269,0.0269,0.0269,0.0269,0.0304,0.0305,0.0306,0,0,0,0,0,0,0,0,0,0,0,0,0,0.0271,0.027,0.0251,0.0251,0.0251,0.0265,0.0265,0.0266,0.0269,0.0269,0.0269,0.0269,0.0304,0.0305,0.0306,0,0,0,0,0,0,0,0,0,0,0,0,0,0.0272,0.027,0.0251,0.0254,0.0255,0.0265,0.0265,0.0266,0.0269,0.0269,0.0269,0.0269,0.0303,0.0305,0.0306,0.0321,0,0,0.0311,0.0312,0,0,0,0,0,0,0,0,0.0272,0.0271,0.0254,0.0254,0.0254,0.0265,0.0285,0.0285,0.0269,0.0264,0.0269,0.0268,0.0292,0.0295,0.0299,0.0322,0.0324,0.0311,0.0312,0.0313,0.0313,0,0,0,0,0,0,0,0.0272,0.0271,0.0257,0.0254,0.0254,0.027,0.0269,0.0285,0.028,0.0265,0.0265,0.0265,0.0293,0.0297,0.03,0.0324,0.0311,0.0313,0.0314,0.0314,0.0398,0.04,0,0,0,0,0,0,0.0266,0.027,0.0257,0.0258,0.0262,0.0269,0.0269,0.0262,0.028,0.0282,0.0266,0.0266,0.0294,0.0298,0.0301,0.0332,0.0313,0.0315,0.0315,0.0397,0.0399,0.04,0,0,0,0,0,0,0.0267,0.0265,0.0256,0.0265,0.0264,0.0269,0.0261,0.0262,0.0263,0.028,0.0283,0.0265,0.0294,0.0299,0.0324,0.0333,0.0315,0.0317,0.0396,0.0398,0.0399,0.0387,0,0,0,0,0,0,0.0267,0.0265,0.0256,0.0264,0.0264,0.0261,0.0262,0.0263,0.0264,0.0264,0.028,0.0283,0.0295,0.0322,0.0326,0.0335,0.0318,0.0394,0.0397,0.0399,0.0386,0.0388,0.039,0,0,0,0,0,0.0268,0.0259,0.0255,0.0254,0.0252,0.0261,0.0263,0.0266,0.0264,0.0266,0.0284,0.0283,0.034,0.0324,0.0328,0.0338,0.0393,0.0396,0.0399,0.0385,0.0388,0.039,0,0,0,0,0,0,0.0262,0.0259,0.0255,0.0245,0.0251,0.0262,0.0261,0.0264,0.0279,0.0278,0.0295,0.03,0.0327,0.034,0.0322,0.0374,0.0368,0.0372,0.0356,0.0359,0.0361,0.0335,0.0319,0,0,0,0,0,0.0256,0.0248,0.0252,0.0244,0.0245,0.0252,0.0254,0.0258,0.0272,0.0277,0.0292,0.0315,0.0343,0.0355,0.0378,0.0402,0.0395,0.0416,0.0418,0.042,0.0404,0.0427,0.0428,0.041,0.0409,0.0409,0,0,0.0252,0.0248,0.0244,0.0242,0.0245,0.0248,0.0253,0.0256,0.0261,0.028,0.0293,0.032,0.0353,0.0382,0.0396,0.0392,0.0418,0.0423,0.0424,0.0407,0.043,0.0431,0.0432,0.0411,0.0411,0.0411,0,0,0.0251,0.0235,0.0236,0.0236,0.0239,0.0242,0.0242,0.0253,0.0259,0.0279,0.03,0.0329,0.0366,0.0391,0.041,0.0439,0.0429,0.0456,0.0442,0.0465,0.0466,0.0467,0.0435,0.0433,0.0457,0.0457,0.0457,0,0.025,0.0237,0.0239,0.024,0.023,0.0238,0.0233,0.0248,0.0267,0.0272,0.0281,0.0342,0.0367,0.0407,0.042,0.044,0.0436,0.0425,0.0465,0.0466,0.0467,0.0434,0.0432,0.0456,0.0456,0.0456,0.0456,0,0.0246,0.0237,0.0236,0.0232,0.0229,0.0221,0.0233,0.0239,0.0246,0.0261,0.0296,0.0339,0.0369,0.0396,0.0415,0.0444,0.0431,0.0463,0.0449,0.0467,0.0433,0.0431,0.0456,0.0456,0.0456,0.0456,0,0,0.023,0.0234,0.023,0.0215,0.0213,0.0204,0.0216,0.022,0.0217,0.0257,0.0264,0.0327,0.0345,0.0368,0.0406,0.0431,0.043,0.0446,0.0448,0.0397,0.044,0.0258,0.0238,0.0474,0.0474,0.0475,0.0403,0,0.0221,0.0218,0.0218,0.0195,0.0183,0.0181,0.0182,0.0191,0.0207,0.0221,0.0275,0.0294,0.0339,0.0348,0.0388,0.0423,0.0429,0.0443,0.0445,0.0444,0.0266,0.0231,0.0476,0.0402,0.0401,0.0401,0.0401,0,0.0201,0.0198,0.0186,0.0155,0.0147,0.0134,0.0109,0.0113,0.0147,0.016,0.0202,0.024,0.0281,0.0319,0.0372,0.038,0.04,0.0426,0.0424,0.0252,0.0257,0.0389,0.0397,0.0397,0.0398,0.0398,0.0398,0,0.017,0.0158,0.0141,0.0131,0.0118,0.0097,0.0078,0.0091,0.0078,0.0112,0.009,0.018,0.0167,0.0256,0.027,0.0338,0.0293,0.0401,0.0249,0.0235,0.043,0.043,0.0423,0.0423,0.0423,0.0423,0.0423,0,0.0133,0.0117,0.0119,0.0107,0.0061,0.0055,0.0013,0.0015,0.001,-0.0032,0.0043,-0.0,0.0148,0.0137,0.0227,0.0167,0.0249,0.0209,0.0199,0.0424,0.0425,0.0426,0.0427,0.042,0.0421,0.0422,0.0422,0,0.0104,0.011,0.0096,0.0076,0.0051,0.0019,-0.0049,-0.0069,-0.0095,-0.015,-0.0158,-0.0154,-0.0205,-0.0119,-0.0042,0.0027,0.0053,0.0008,0.015,0.0156,0.0011,0.0013,-0.0103,-0.0111,-0.0117,-0.0122,-0.0126,0,0.0093,0.0088,0.0077,0.0049,0.0032,-0.0027,-0.0065,-0.0103,-0.0135,-0.0274,-0.0306,-0.0409,-0.0408,-0.0463,-0.0343,-0.0256,-0.0227,-0.0191,0.0009,-0.0049,-0.0045,-0.0033,-0.0023,-0.0136,-0.0137,-0.0139,-0.014,0,0.0082,0.0095,0.0092,0.0036,-0.0012,-0.0068,-0.014,-0.018,-0.0258,-0.0305,-0.0479,-0.0525,-0.0638,-0.0571,-0.0588,-0.0481,-0.0171,-0.0251,-0.0232,-0.0044,-0.0089,-0.0076,-0.0059,-0.0161,-0.0158,-0.0156,-0.0155,0,0.0095,0.0094,0.0089,0.0029,-0.0028,-0.0096,-0.0137,-0.0242,-0.0304,-0.0455,-0.054,-0.0653,-0.0703,-0.0705,-0.0688,-0.0659,-0.0556,-0.0409,-0.038,-0.0355,-0.0399,-0.0491,-0.0732,0,0,0,0,0,0.0109,0.0102,0.0062,0.0023,-0.0036,-0.0078,-0.0177,-0.0214,-0.0317,-0.0453,-0.05,-0.0621,-0.0704,-0.0734,-0.0735,-0.0714,-0.05,-0.0703,-0.0301,-0.0278,-0.0254,-0.0278,0,0,0,0,0,0,0.0121,0.0106,0.0082,0.002,-0.0014,-0.0078,-0.0137,-0.0211,-0.0288,-0.0413,-0.0466,-0.0563,-0.063,-0.0705,-0.0718,-0.0719,-0.0447,-0.0759,-0.0757,-0.0292,-0.027,-0.0251,-0.0266,0,0,0,0,0]},{"header":{"parameterUnit":"m.s-1","parameterCategory":2,"la1":30.2991,"la2":30.254,"lo1":-89.0895,"lo2":-89.0444,"dy":0.0017,"dx":0.0017,"nx":28,"ny":28,"refTime":"2024-04-28T03:00:00:Z","depth":"4","parameterNumber":3,"parameterNumberName":"V-component_of_CURRENTS"},"data":[0,0,0,0,0,0,0,0,0,0,0,0,0,0,0,0,0,0,0,0,0,0,0,0,0,0,0,0,0,0,0,0,0,0,0,0,0,0,0,0,0,0,0,0,0,0,0,0,0,0,0,0,0,0,0,0,0,0,-0.0223,-0.0223,0,-0.0179,-0.0178,-0.0178,-0.0182,-0.0183,-0.0184,-0.0185,-0.0152,-0.015,-0.0149,0,0,0,0,0,0,0,0,0,0,0,0,0,-0.0303,-0.0301,-0.0223,-0.0223,-0.0222,-0.0179,-0.0178,-0.0178,-0.0182,-0.0183,-0.0184,-0.0185,-0.0152,-0.0151,-0.0149,0,0,0,0,0,0,0,0,0,0,0,0,0,-0.0264,-0.0301,-0.0224,-0.0219,-0.0219,-0.0179,-0.0178,-0.0177,-0.0182,-0.0183,-0.0184,-0.0185,-0.0153,-0.0151,-0.0149,-0.0113,0,0,-0.0142,-0.0141,0,0,0,0,0,0,0,0,-0.0266,-0.0261,-0.0221,-0.022,-0.0219,-0.0187,-0.0194,-0.0157,-0.0182,-0.0196,-0.0185,-0.0186,-0.0164,-0.0161,-0.015,-0.0112,-0.011,-0.0141,-0.014,-0.0139,-0.0138,0,0,0,0,0,0,0,-0.0269,-0.0263,-0.0206,-0.022,-0.0219,-0.0217,-0.0212,-0.0187,-0.0175,-0.0195,-0.0195,-0.019,-0.0164,-0.0152,-0.0149,-0.011,-0.0141,-0.0139,-0.0138,-0.0137,-0.0049,-0.0049,0,0,0,0,0,0,-0.0274,-0.0266,-0.0207,-0.0204,-0.0246,-0.0214,-0.021,-0.0196,-0.0175,-0.0172,-0.0189,-0.019,-0.0156,-0.0152,-0.0148,-0.01,-0.0139,-0.0137,-0.0136,-0.005,-0.0049,-0.0048,0,0,0,0,0,0,-0.0275,-0.0269,-0.0209,-0.0235,-0.0227,-0.0212,-0.0197,-0.0195,-0.0188,-0.017,-0.0168,-0.0185,-0.0156,-0.0151,-0.0123,-0.0099,-0.0136,-0.0134,-0.0051,-0.005,-0.0049,-0.0006,0,0,0,0,0,0,-0.0278,-0.0269,-0.0261,-0.0235,-0.0226,-0.0182,-0.0196,-0.0193,-0.0182,-0.0184,-0.0165,-0.0163,-0.0157,-0.0126,-0.0121,-0.0096,-0.0132,-0.0053,-0.0051,-0.0049,-0.0008,-0.0003,0.0001,0,0,0,0,0,-0.0281,-0.0263,-0.0261,-0.0254,-0.0215,-0.0181,-0.0175,-0.0169,-0.0181,-0.0169,-0.0159,-0.0164,-0.0112,-0.0123,-0.0117,-0.0091,-0.0054,-0.0051,-0.0049,-0.0011,-0.0004,0.0001,0,0,0,0,0,0,-0.0295,-0.0261,-0.0259,-0.0232,-0.0208,-0.0182,-0.0171,-0.0168,-0.0149,-0.0154,-0.0147,-0.0142,-0.011,-0.0106,-0.012,-0.0062,-0.0085,-0.0081,-0.0058,-0.0052,-0.0047,-0.005,-0.013,0,0,0,0,0,-0.0293,-0.0271,-0.0242,-0.0221,-0.021,-0.0191,-0.0179,-0.0171,-0.0152,-0.0146,-0.013,-0.0115,-0.0093,-0.0079,-0.006,-0.0023,-0.0043,-0.0005,0.0,0.0005,0.0006,-0.0005,-0.0001,-0.0041,-0.0041,-0.0041,0,0,-0.0295,-0.0273,-0.0262,-0.0223,-0.0207,-0.0174,-0.0186,-0.0163,-0.0133,-0.0143,-0.0102,-0.0096,-0.008,-0.0041,-0.0026,-0.0036,0.0005,0.0007,0.0011,0.001,-0.0002,0.0002,0.0005,-0.004,-0.004,-0.004,0,0,-0.0283,-0.0265,-0.0244,-0.0219,-0.0189,-0.0165,-0.0159,-0.0127,-0.0114,-0.0071,-0.0076,-0.0057,-0.0014,-0.0,0.0012,0.0056,0.0029,0.0062,0.009,0.008,0.0083,0.0085,0.0058,0.0058,0.0067,0.0067,0.0067,0,-0.0294,-0.0256,-0.0233,-0.0204,-0.0181,-0.0161,-0.0131,-0.0101,-0.0063,-0.0049,-0.0054,-0.0004,0.0007,0.0047,0.0063,0.0068,0.0048,0.0067,0.0086,0.0088,0.0089,0.0061,0.006,0.0069,0.0069,0.0069,0.0068,0,-0.0263,-0.0233,-0.0218,-0.0169,-0.0137,-0.0109,-0.0065,-0.0034,-0.0016,0.0007,0.0045,0.0061,0.0084,0.0096,0.0098,0.0121,0.0097,0.009,0.0069,0.0096,0.0064,0.0062,0.0072,0.0072,0.0071,0.007,0,0,-0.0294,-0.0215,-0.0215,-0.0187,-0.012,-0.0094,-0.0033,0.0018,0.0041,0.0082,0.0108,0.0153,0.0145,0.0157,0.0156,0.0155,0.015,0.0131,0.0129,0.01,0.0112,0.0137,0.0136,0.0143,0.0143,0.0143,0.0082,0,-0.0285,-0.0238,-0.0188,-0.0132,-0.0099,-0.0049,0.0005,0.0055,0.0091,0.0125,0.0145,0.017,0.0174,0.0176,0.0181,0.016,0.0148,0.0167,0.0093,0.0091,0.0107,0.0137,0.0144,0.0081,0.008,0.008,0.0079,0,-0.0273,-0.0242,-0.0194,-0.0116,-0.0099,-0.0057,0.0012,0.0061,0.0122,0.0146,0.0179,0.0191,0.0214,0.0198,0.0183,0.0193,0.0156,0.0133,0.013,0.0138,0.0113,0.0049,0.0075,0.0076,0.0076,0.0076,0.0077,0,-0.0318,-0.0243,-0.0211,-0.0185,-0.0092,-0.0063,-0.0017,0.0055,0.008,0.0148,0.0161,0.0201,0.0204,0.0187,0.0176,0.0167,0.0142,0.0119,0.0102,0.0101,0.0074,0.0072,0.0088,0.0088,0.0089,0.0089,0.0089,0,-0.0316,-0.0293,-0.0234,-0.0219,-0.0183,-0.0099,-0.0062,-0.0007,0.005,0.006,0.0152,0.0163,0.0199,0.0202,0.0176,0.0153,0.0143,0.0112,0.0096,0.0093,0.0094,0.0072,0.0071,0.0086,0.0087,0.0087,0.0088,0,-0.0347,-0.031,-0.0283,-0.022,-0.0203,-0.018,-0.0116,-0.0102,-0.0017,-0.0005,0.0012,0.0117,0.0146,0.0179,0.0156,0.0149,0.0123,0.0106,0.0106,0.009,0.0076,0.0077,0.0065,0.0065,0.0066,0.0066,0.0067,0,-0.0344,-0.0334,-0.0323,-0.033,-0.0301,-0.0262,-0.0252,-0.0161,-0.0162,-0.0049,-0.0073,0.002,0.0077,0.0074,0.0136,0.0126,0.0117,0.0098,0.009,0.0091,0.0077,0.0078,0.0079,0.0067,0.0068,0.0068,0.0068,0,-0.0343,-0.0364,-0.0367,-0.0407,-0.0408,-0.0401,-0.0386,-0.0395,-0.0305,-0.0219,-0.0171,-0.0088,-0.0031,0.004,0.0074,0.0056,0.0119,0.0103,0.01,0.0091,0.0094,0.008,0.008,0.0069,0.0069,0.0069,0.0069,0,-0.037,-0.0405,-0.0449,-0.0476,-0.0506,-0.0552,-0.0516,-0.0508,-0.0477,-0.0357,-0.0342,-0.0197,-0.0089,0.0003,0.0019,0.0048,0.0027,-0.0007,-0.0004,-0.0005,0.0022,0.0018,-0.004,0,0,0,0,0,-0.0384,-0.0461,-0.0505,-0.0567,-0.0611,-0.0626,-0.062,-0.0579,-0.05,-0.0505,-0.0424,-0.0364,-0.0229,-0.0126,-0.011,0.0005,0.0024,0.0026,-0.0019,0.0079,0.0077,0.0127,0,0,0,0,0,0,-0.0411,-0.0483,-0.0531,-0.0641,-0.0702,-0.075,-0.0758,-0.0698,-0.0692,-0.0584,-0.0516,-0.0388,-0.0264,-0.0263,-0.0121,-0.0092,-0.0126,0.0125,0.0125,0.008,0.0078,0.0077,0.0128,0,0,0,0,0]}]]